User: anonymous   Login
Location: Unspecified
(0.0000°N, 0.0000°E)
Time: 10:18:55
(UTC+00:00)
Language:

ESTCUBE 1 - Orbit

View from above orbital plane
View from above orbital plane
View from above satellite
View from above satellite

Ground track
Ground track

The orbit data is extracted from the following two-line orbital elements,

1 39161U 13021C   17295.04794964  .00000239  00000-0  45983-4 0  9991
2 39161  98.0236  19.3712 0011237  97.7519 262.4966 14.71962608239413
Epoch (UTC): 22 October 2017 01:09:02
Eccentricity: 0.0011237
inclination: 98.0236°
perigee height: 647 km
apogee height: 663 km
right ascension of ascending node: 19.3712°
argument of perigee: 97.7519°
revolutions per day: 14.71962608
mean anomaly at epoch: 262.4966°
orbit number at epoch: 23941

The dashed part of the orbit path shows where the satellite is in the earth's shadow,  

DLR